Date String (YYYY-MM-DD hh:mm:ss) UTC,Instrument flags,Ambient pressure (hPa),Sample flow (lpm),Bypass flow (lpm),Sample temperature (°C),Ambient temperature (°C),ASC tube jacket temperature (°C),LED temperature (°C),Box temperature (°C),Sample RH (%),Span deviation,Mass concentration (μg/m³),Mass concentration (μg/m³),Mass concentration (μg/m³)
DateTimeUTC,F1_M11,P_M11,Q1_M11,Q2_M11,T1_M11,T2_M11,T3_M11,T4_M11,T5_M11,U1_M11,ZSPAN_M11,X2_M11,X0_M11,X1_M11
2022-03-23 04:00:00,,0830.0,4.99,0.00,21.8,21.1,00.0,30.9,23.5,08.9,0000.0,0000.83,0002.98,0000.50
2022-03-23 04:01:00,,0830.1,5.00,0.00,21.8,21.0,00.0,30.9,23.4,08.7,0000.0,0000.87,0003.09,0000.51
2022-03-23 04:02:00,,0830.1,5.00,0.00,21.7,20.9,00.0,30.8,23.4,08.6,0000.0,0000.86,0003.09,0000.52
2022-03-23 04:03:00,,0830.0,5.00,0.00,21.7,20.9,00.0,30.8,23.3,08.6,0000.0,0000.85,0002.30,0000.52
2022-03-23 04:04:00,,0830.0,5.00,0.00,21.7,20.8,00.0,30.8,23.2,08.5,0000.0,0000.87,0001.86,0000.52
2022-03-23 04:05:00,,0830.0,4.99,0.00,21.6,20.7,00.0,30.8,23.2,08.5,0000.0,0000.87,0001.81,0000.52
2022-03-23 04:06:00,,0830.0,5.01,0.00,21.6,20.7,00.0,30.8,23.1,08.5,0000.0,0000.88,0001.86,0000.52
2022-03-23 04:07:00,,0830.1,5.00,0.00,21.5,20.6,00.0,30.7,23.1,08.4,0000.0,0000.84,0001.83,0000.51
2022-03-23 04:08:00,,0830.0,4.98,0.00,21.6,21.0,00.0,30.7,23.2,08.4,0000.0,0000.85,0001.76,0000.51
2022-03-23 04:09:00,,0830.0,5.00,0.00,21.7,22.1,00.0,30.8,23.5,08.4,0000.0,0000.83,0001.67,0000.52
2022-03-23 04:10:00,,0830.0,5.02,0.00,21.9,22.9,00.0,30.8,23.8,08.3,0000.0,0000.81,0001.63,0000.51
2022-03-23 04:11:00,,0830.0,4.99,0.00,21.9,22.7,00.0,30.8,23.9,08.2,0000.0,0000.79,0001.59,0000.51
2022-03-23 04:12:00,,0829.9,5.00,0.00,21.9,22.4,00.0,30.8,23.7,08.3,0000.0,0000.76,0001.48,0000.50
2022-03-23 04:13:00,,0829.9,4.99,0.00,21.9,22.0,00.0,30.8,23.6,08.1,0000.0,0000.76,0001.44,0000.50
2022-03-23 04:14:00,,0830.0,5.01,0.00,21.8,21.7,00.0,30.8,23.5,08.2,0000.0,0000.79,0001.53,0000.50
2022-03-23 04:15:00,,0830.0,5.00,0.00,21.8,21.5,00.0,30.8,23.5,08.3,0000.0,0000.78,0001.54,0000.49
2022-03-23 04:16:00,,0830.0,4.98,0.00,21.8,21.4,00.0,30.8,23.5,08.4,0000.0,0000.77,0001.52,0000.49
2022-03-23 04:17:00,,0830.0,5.01,0.00,21.8,21.3,00.0,30.8,23.5,08.4,0000.0,0000.73,0001.41,0000.49
2022-03-23 04:18:00,,0830.0,5.01,0.00,21.8,21.2,00.0,30.8,23.4,08.4,0000.0,0000.72,0001.32,0000.49
2022-03-23 04:19:00,,0829.9,5.00,0.00,21.7,21.1,00.0,30.8,23.4,08.3,0000.0,0000.69,0001.20,0000.49
2022-03-23 04:20:00,,0829.9,4.98,0.00,21.7,21.1,00.0,30.8,23.4,08.4,0000.0,0000.70,0001.24,0000.48
2022-03-23 04:21:00,,0829.9,5.01,0.00,21.7,21.0,00.0,30.8,23.4,08.4,0000.0,0000.71,0001.29,0000.48
2022-03-23 04:22:00,,0829.9,5.00,0.00,21.7,21.0,00.0,30.8,23.4,08.4,0000.0,0000.72,0001.30,0000.48
2022-03-23 04:23:00,,0829.8,5.00,0.00,21.7,20.9,00.0,30.8,23.4,08.5,0000.0,0000.74,0001.38,0000.48
2022-03-23 04:24:00,,0829.8,4.99,0.00,21.7,20.9,00.0,30.8,23.3,08.5,0000.0,0000.74,0001.42,0000.49
2022-03-23 04:25:00,,0829.8,5.00,0.00,21.6,20.9,00.0,30.8,23.3,08.5,0000.0,0000.70,0001.32,0000.49
2022-03-23 04:26:00,,0829.8,4.99,0.00,21.6,20.8,00.0,30.7,23.3,08.5,0000.0,0000.70,0001.29,0000.49
2022-03-23 04:27:00,,0829.8,5.00,0.00,21.6,20.8,00.0,30.7,23.3,08.5,0000.0,0000.69,0001.25,0000.49
2022-03-23 04:28:00,,0829.8,5.00,0.00,21.6,20.8,00.0,30.7,23.2,08.5,0000.0,0000.73,0001.35,0000.50
2022-03-23 04:29:00,,0829.8,5.00,0.00,21.6,20.8,00.0,30.7,23.2,08.6,0000.0,0000.72,0001.34,0000.48
2022-03-23 04:30:00,,0829.8,5.00,0.00,21.6,20.8,00.0,30.7,23.3,08.6,0000.0,0000.73,0001.34,0000.48
2022-03-23 04:31:00,,0829.8,5.00,0.00,21.6,20.9,00.0,30.7,23.3,08.6,0000.0,0000.73,0001.32,0000.48
2022-03-23 04:32:00,,0829.8,5.01,0.00,21.7,21.7,00.0,30.7,23.5,08.6,0000.0,0000.73,0001.33,0000.49
2022-03-23 04:33:00,,0829.7,5.01,0.00,21.8,22.6,00.0,30.7,23.8,08.6,0000.0,0000.77,0001.46,0000.49
2022-03-23 04:34:00,,0829.7,4.99,0.00,22.0,23.1,00.0,30.8,24.0,08.3,0000.0,0000.75,0001.40,0000.49
2022-03-23 04:35:00,,0829.8,5.01,0.00,22.0,22.8,00.0,30.8,24.0,08.4,0000.0,0000.75,0001.36,0000.48
2022-03-23 04:36:00,,0829.7,4.98,0.00,22.0,22.4,00.0,30.8,23.9,08.5,0000.0,0000.77,0001.39,0000.49
2022-03-23 04:37:00,,0829.6,5.00,0.00,22.0,22.2,00.0,30.8,23.8,08.5,0000.0,0000.77,0001.39,0000.49
2022-03-23 04:38:00,,0829.7,5.01,0.00,22.0,21.9,00.0,30.8,23.7,08.5,0000.0,0000.77,0001.47,0000.48
2022-03-23 04:39:00,,0829.6,5.01,0.00,22.0,21.7,00.0,30.9,23.7,08.6,0000.0,0000.72,0001.37,0000.47
2022-03-23 04:40:00,,0829.6,4.99,0.00,21.9,21.5,00.0,30.9,23.6,08.5,0000.0,0000.73,0001.36,0000.49
2022-03-23 04:41:00,,0829.6,5.01,0.00,21.9,21.4,00.0,30.9,23.6,08.5,0000.0,0000.73,0001.36,0000.50
2022-03-23 04:42:00,,0829.6,4.99,0.00,21.9,21.3,00.0,30.9,23.6,08.5,0000.0,0000.71,0001.32,0000.50
2022-03-23 04:43:00,,0829.6,5.01,0.00,21.9,21.2,00.0,30.9,23.5,08.5,0000.0,0000.72,0001.32,0000.50
2022-03-23 04:44:00,,0829.6,5.00,0.00,21.8,21.2,00.0,30.9,23.5,08.5,0000.0,0000.70,0001.24,0000.49
2022-03-23 04:45:00,,0829.6,5.00,0.00,21.8,21.1,00.0,30.9,23.5,08.5,0000.0,0000.70,0001.25,0000.48
2022-03-23 04:46:00,,0829.6,5.00,0.00,21.8,21.1,00.0,30.8,23.5,08.5,0000.0,0000.69,0001.23,0000.48
2022-03-23 04:47:00,,0829.6,5.01,0.00,21.8,21.0,00.0,30.8,23.5,08.5,0000.0,0000.69,0001.26,0000.48
2022-03-23 04:48:00,,0829.6,5.00,0.00,21.8,21.0,00.0,30.8,23.4,08.5,0000.0,0000.68,0001.28,0000.47
2022-03-23 04:49:00,,0829.6,5.00,0.00,21.7,21.0,00.0,30.8,23.4,08.5,0000.0,0000.68,0001.19,0000.47
2022-03-23 04:50:00,,0829.6,5.00,0.00,21.7,20.9,00.0,30.8,23.4,08.5,0000.0,0000.69,0001.21,0000.47
2022-03-23 04:51:00,,0829.6,4.99,0.00,21.7,20.9,00.0,30.8,23.3,08.5,0000.0,0000.69,0001.21,0000.47
2022-03-23 04:52:00,,0829.5,5.00,0.00,21.7,20.9,00.0,30.8,23.3,08.5,0000.0,0000.68,0001.23,0000.46
2022-03-23 04:53:00,,0829.5,5.00,0.00,21.6,20.8,00.0,30.8,23.3,08.5,0000.0,0000.69,0001.29,0000.45
2022-03-23 04:54:00,,0829.5,5.00,0.00,21.6,20.8,00.0,30.7,23.3,08.5,0000.0,0000.71,0001.37,0000.44
2022-03-23 04:55:00,,0829.5,5.01,0.00,21.6,20.8,00.0,30.7,23.3,08.5,0000.0,0000.71,0001.47,0000.44
2022-03-23 04:56:00,,0829.5,5.01,0.00,21.6,20.9,00.0,30.7,23.3,08.5,0000.0,0000.69,0001.45,0000.45
2022-03-23 04:57:00,,0829.5,4.99,0.00,21.7,21.6,00.0,30.7,23.5,08.5,0000.0,0000.71,0001.49,0000.45
2022-03-23 04:58:00,,0829.5,5.01,0.00,21.9,22.6,00.0,30.8,23.8,08.4,0000.0,0000.76,0001.59,0000.46
2022-03-23 04:59:00,,0829.5,4.99,0.00,22.0,23.0,00.0,30.8,24.0,08.3,0000.0,0000.77,0001.56,0000.46
